This is the latest recevied weather packets stored in our database for station/object WA4IKQ. If no packets are shown the sender has not sent any weather packets the latest 10 day(s).
| Time | Temp. | Humidity | Pressure | Rain* | Wind** | Luminosity | Snow |
|---|---|---|---|---|---|---|---|
| 1777311520 | 27.78° C | 61% | 1016.8 hPa | 0 mm | 3.58 m/s, 347° | - | - |
| 1777310889 | 27.78° C | 62% | 1016.8 hPa | 0 mm | 3.58 m/s, 32° | - | - |
| 1777310776 | 27.78° C | 62% | 1016.8 hPa | 0 mm | 3.58 m/s, 32° | - | - |
| 1777310476 | 27.78° C | 62% | 1016.7 hPa | 0 mm | 4.02 m/s, 359° | - | - |
| 1777310291 | 27.78° C | 62% | 1016.7 hPa | 0 mm | 4.02 m/s, 23° | - | - |
| 1777310016 | 27.22° C | 64% | 1016.7 hPa | 0 mm | 4.02 m/s, 42° | - | - |
| 1777308978 | 27.22° C | 64% | 1016.8 hPa | 0 mm | 1.79 m/s, 294° | - | - |
| 1777308191 | 27.22° C | 65% | 1016.9 hPa | 0 mm | 3.13 m/s, 352° | - | - |
| 1777308076 | 27.22° C | 65% | 1016.9 hPa | 0 mm | 3.13 m/s, 352° | - | - |
| 1777307552 | 27.22° C | 64% | 1016.9 hPa | 0 mm | 1.79 m/s, 37° | - | - |
| 1777307476 | 27.22° C | 64% | 1016.9 hPa | 0 mm | 1.79 m/s, 37° | - | - |
| 1777306701 | 26.67° C | 66% | 1017 hPa | 0 mm | 2.68 m/s, 21° | - | - |
| 1777306574 | 26.67° C | 66% | 1017 hPa | 0 mm | 2.68 m/s, 21° | - | - |
| 1777306274 | 26.67° C | 68% | 1017 hPa | 0 mm | 2.68 m/s, 60° | - | - |
| 1777305675 | 26.67° C | 68% | 1017 hPa | 0 mm | 2.68 m/s, 24° | - | - |
| 1777305075 | 26.11° C | 70% | 1016.9 hPa | 0 mm | 3.58 m/s, 359° | - | - |
| 1777304331 | 26.11° C | 71% | 1016.9 hPa | 0 mm | 4.92 m/s, 347° | - | - |
| 1777304173 | 26.11° C | 71% | 1016.9 hPa | 0 mm | 4.92 m/s, 347° | - | - |
| 1777304129 | 25.56° C | 72% | 1016.9 hPa | 0 mm | 1.79 m/s, 13° | - | - |
| 1777304047 | 25.56° C | 72% | 1016.9 hPa | 0 mm | 1.79 m/s, 13° | - | - |
| 1777303873 | 25.56° C | 72% | 1016.9 hPa | 0 mm | 1.79 m/s, 13° | - | - |
| 1777303715 | 25.56° C | 72% | 1016.8 hPa | 0 mm | 3.13 m/s, 34° | - | - |
| 1777303574 | 25.56° C | 72% | 1016.8 hPa | 0 mm | 3.13 m/s, 34° | - | - |
| 1777303274 | 26.11° C | 71% | 1016.9 hPa | 0 mm | 0.89 m/s, 51° | - | - |
| 1777302676 | 26.67° C | 70% | 1016.7 hPa | 0 mm | 1.34 m/s, 20° | - | - |
* Rain latest hour (hover to see other rain measurements)
** Current wind speed in m/s (hover to see current wind gust speed)